Time,TemperatureF,DewpointF,PressureIn,WindDirection,WindDirectionDegrees,WindSpeedMPH,WindSpeedGustMPH,Humidity,HourlyPrecipIn,Conditions,Clouds,dailyrainin,SoftwareType,DateUTC
2013-09-29 00:00:00,158.0,0.0,30.03,East,86,0.0,2.0,0,0.00,,---,0.00,VWS V14.00,2013-09-29 05:00:00,
2013-09-29 00:10:00,158.0,0.0,30.03,ENE,65,0.0,2.0,0,0.00,,---,0.00,VWS V14.00,2013-09-29 05:10:00,
2013-09-29 00:20:00,158.0,0.0,30.03,ENE,78,0.0,1.0,0,0.00,,---,0.00,VWS V14.00,2013-09-29 05:20:00,
2013-09-29 00:30:00,158.0,0.0,30.02,ENE,69,0.0,2.0,0,0.00,,---,0.00,VWS V14.00,2013-09-29 05:30:00,
2013-09-29 00:40:00,158.0,0.0,30.03,ENE,60,0.0,2.0,0,0.00,,---,0.00,VWS V14.00,2013-09-29 05:40:00,
2013-09-29 00:50:00,158.0,0.0,30.02,ENE,57,0.0,1.0,0,0.00,,---,0.00,VWS V14.00,2013-09-29 05:50:00,
2013-09-29 01:00:00,158.0,0.0,30.03,NE,56,0.0,2.0,0,0.00,,---,0.00,VWS V14.00,2013-09-29 06:00:00,
2013-09-29 01:10:00,158.0,0.0,30.02,ENE,73,0.0,2.0,0,0.00,,---,0.00,VWS V14.00,2013-09-29 06:10:00,
2013-09-29 01:20:00,158.0,0.0,30.02,NE,51,0.0,2.0,0,0.00,,---,0.00,VWS V14.00,2013-09-29 06:20:00,
2013-09-29 01:30:00,158.0,0.0,30.02,ENE,60,0.0,2.0,0,0.00,,---,0.00,VWS V14.00,2013-09-29 06:30:00,
2013-09-29 01:40:00,158.0,0.0,30.02,NE,55,0.0,1.0,0,0.00,,---,0.00,VWS V14.00,2013-09-29 06:40:00,
2013-09-29 01:50:00,158.0,0.0,30.01,ENE,61,0.0,2.0,0,0.00,,---,0.00,VWS V14.00,2013-09-29 06:50:00,
2013-09-29 02:00:00,158.0,0.0,30.02,ENE,65,0.0,3.0,0,0.00,,---,0.00,VWS V14.00,2013-09-29 07:00:00,
2013-09-29 02:10:00,158.0,0.0,30.02,ENE,59,0.0,2.0,0,0.00,,---,0.00,VWS V14.00,2013-09-29 07:10:00,
2013-09-29 02:20:00,158.0,0.0,30.01,ENE,74,1.0,2.0,0,0.00,,---,0.00,VWS V14.00,2013-09-29 07:20:00,
2013-09-29 02:30:00,158.0,0.0,30.01,ENE,61,0.0,2.0,0,0.00,,---,0.00,VWS V14.00,2013-09-29 07:30:00,
2013-09-29 02:40:00,158.0,0.0,30.01,ENE,63,0.0,2.0,0,0.00,,---,0.00,VWS V14.00,2013-09-29 07:40:00,
2013-09-29 02:50:00,158.0,0.0,30.01,ENE,62,0.0,1.0,0,0.00,,---,0.00,VWS V14.00,2013-09-29 07:50:00,
2013-09-29 03:00:00,158.0,0.0,30.01,NE,45,0.0,2.0,0,0.00,,---,0.00,VWS V14.00,2013-09-29 08:00:00,
2013-09-29 03:10:00,158.0,0.0,30.00,ENE,73,0.0,3.0,0,0.00,,---,0.00,VWS V14.00,2013-09-29 08:10:00,
2013-09-29 03:20:00,158.0,0.0,30.00,ENE,61,0.0,3.0,0,0.00,,---,0.00,VWS V14.00,2013-09-29 08:20:00,
2013-09-29 03:30:00,158.0,0.0,30.00,ENE,78,0.0,4.0,0,0.00,,---,0.00,VWS V14.00,2013-09-29 08:30:00,
2013-09-29 03:40:00,158.0,0.0,30.00,ENE,60,1.0,3.0,0,0.00,,---,0.00,VWS V14.00,2013-09-29 08:40:00,
2013-09-29 03:50:00,158.0,0.0,30.00,ENE,69,0.0,2.0,0,0.00,,---,0.00,VWS V14.00,2013-09-29 08:50:00,
2013-09-29 04:00:00,158.0,0.0,30.00,ENE,67,0.0,2.0,0,0.00,,---,0.00,VWS V14.00,2013-09-29 09:00:00,
2013-09-29 04:10:00,158.0,0.0,30.00,ENE,74,1.0,2.0,0,0.00,,---,0.00,VWS V14.00,2013-09-29 09:10:00,
2013-09-29 04:20:00,158.0,0.0,30.00,ENE,67,0.0,2.0,0,0.00,,---,0.00,VWS V14.00,2013-09-29 09:20:00,
2013-09-29 04:30:00,158.0,0.0,29.99,East,88,0.0,2.0,0,0.00,,---,0.00,VWS V14.00,2013-09-29 09:30:00,
2013-09-29 04:40:00,158.0,0.0,30.00,ENE,69,0.0,2.0,0,0.00,,---,0.00,VWS V14.00,2013-09-29 09:40:00,
2013-09-29 04:50:00,158.0,0.0,29.99,East,84,2.0,3.0,0,0.00,,---,0.00,VWS V14.00,2013-09-29 09:50:00,
2013-09-29 05:00:00,158.0,0.0,30.00,ENE,75,0.0,3.0,0,0.00,,---,0.00,VWS V14.00,2013-09-29 10:00:00,
2013-09-29 05:10:00,158.0,0.0,30.00,NE,49,0.0,3.0,0,0.00,,---,0.00,VWS V14.00,2013-09-29 10:10:00,
2013-09-29 05:20:00,158.0,0.0,30.00,East,98,0.0,3.0,0,0.00,,---,0.00,VWS V14.00,2013-09-29 10:20:00,
2013-09-29 05:30:00,158.0,0.0,30.00,East,84,1.0,2.0,0,0.00,,---,0.00,VWS V14.00,2013-09-29 10:30:00,
2013-09-29 05:40:00,158.0,0.0,30.00,ENE,77,0.0,3.0,0,0.00,,---,0.00,VWS V14.00,2013-09-29 10:40:00,
2013-09-29 05:50:00,158.0,0.0,30.00,East,80,1.0,3.0,0,0.00,,---,0.00,VWS V14.00,2013-09-29 10:50:00,
2013-09-29 06:00:00,158.0,0.0,30.00,East,87,0.0,3.0,0,0.00,,---,0.00,VWS V14.00,2013-09-29 11:00:00,
2013-09-29 06:10:00,158.0,0.0,30.00,ENE,74,1.0,3.0,0,0.00,,---,0.00,VWS V14.00,2013-09-29 11:10:00,
2013-09-29 06:20:00,158.0,0.0,30.00,ENE,75,1.0,3.0,0,0.00,,---,0.00,VWS V14.00,2013-09-29 11:20:00,
2013-09-29 06:30:00,158.0,0.0,30.00,East,98,0.0,3.0,0,0.00,,---,0.00,VWS V14.00,2013-09-29 11:30:00,
2013-09-29 06:40:00,158.0,0.0,30.00,ENE,78,0.0,2.0,0,0.00,,---,0.00,VWS V14.00,2013-09-29 11:40:00,
2013-09-29 06:50:00,158.0,0.0,30.00,ENE,71,0.0,3.0,0,0.00,,---,0.00,VWS V14.00,2013-09-29 11:50:00,
2013-09-29 07:00:00,158.0,0.0,30.00,ENE,62,0.0,2.0,0,0.00,,---,0.00,VWS V14.00,2013-09-29 12:00:00,
2013-09-29 07:10:00,158.0,0.0,30.00,East,80,0.0,2.0,0,0.00,,---,0.00,VWS V14.00,2013-09-29 12:10:00,
2013-09-29 09:20:00,158.0,0.0,30.04,ENE,65,0.0,1.0,0,0.00,,---,0.00,VWS V14.00,2013-09-29 14:20:00,
2013-09-29 09:30:00,158.0,0.0,30.03,NE,43,0.0,2.0,0,0.00,,---,0.00,VWS V14.00,2013-09-29 14:30:00,
2013-09-29 09:40:00,158.0,0.0,30.02,ENE,57,0.0,0.0,0,0.00,,---,0.00,VWS V14.00,2013-09-29 14:40:00,
2013-09-29 09:50:00,158.0,0.0,30.02,ENE,66,0.0,3.0,0,0.00,,---,0.00,VWS V14.00,2013-09-29 14:50:00,
2013-09-29 10:00:00,158.0,0.0,30.02,East,81,0.0,0.0,0,0.00,,---,0.00,VWS V14.00,2013-09-29 15:00:00,
2013-09-29 10:20:00,158.0,0.0,30.02,NE,47,0.0,0.0,0,0.00,,---,0.00,VWS V14.00,2013-09-29 15:20:00,